When you browse on this site, cookies collect data to enhance your experience and personalize the content and advertising you see.
Visit our Privacy Policy to learn more. By continuing to use the site, you agree to this use of cookies and data.
  • In Deutschland
  • Länderverzeichnis
  • Für 7 Tage
  • Wassertemperatur
  • Satellitenkarten
  • Wetterkarte
  • Widgets
  • user-avatar
    Anmelden

    Stündliche Wetter Dajianchang

    Heute, 19 Februar, Dienstag

    Zeit Temperatur Niederschläge Wind Luftdruck Luftfeuchtigkeit
    00:00 +2°C° 0 mm 2 m/S 765 mmHg 39%
    01:00 +2°C° 0 mm 2 m/S 765 mmHg 44%
    02:00 +1°C° 0 mm 2 m/S 765 mmHg 48%
    03:00 +1°C° 0.1 mm 2 m/S 765 mmHg 55%
    04:00 +1°C° 0.1 mm 2 m/S 765 mmHg 61%
    05:00 -1°C° 0.1 mm 2 m/S 764 mmHg 67%
    06:00 -1°C° 0 mm 2 m/S 765 mmHg 71%
    07:00 -1°C° 0 mm 2 m/S 765 mmHg 75%
    08:00 -1°C° 0 mm 3 m/S 765 mmHg 81%
    09:00 0°C° 0 mm 3 m/S 765 mmHg 73%
    10:00 +1°C° 0 mm 3 m/S 765 mmHg 65%
    11:00 +2°C° 0 mm 3 m/S 765 mmHg 56%
    12:00 +3°C° 0 mm 3 m/S 765 mmHg 51%
    13:00 +4°C° 0 mm 3 m/S 764 mmHg 46%
    14:00 +6°C° 0 mm 2 m/S 764 mmHg 42%
    15:00 +6°C° 0 mm 2 m/S 764 mmHg 41%
    16:00 +6°C° 0 mm 2 m/S 764 mmHg 40%
    17:00 +6°C° 0 mm 2 m/S 765 mmHg 39%
    18:00 +5°C° 0 mm 2 m/S 765 mmHg 44%
    19:00 +4°C° 0 mm 2 m/S 766 mmHg 48%
    20:00 +1°C° 0 mm 3 m/S 766 mmHg 65%
    21:00 +1°C° 0 mm 3 m/S 767 mmHg 61%
    22:00 0°C° 0 mm 3 m/S 767 mmHg 57%
    23:00 0°C° 0 mm 3 m/S 768 mmHg 54%

    Morgen, 20 Februar, Mittwoch

    Zeit Temperatur Niederschläge Wind Luftdruck Luftfeuchtigkeit
    00:00 -1°C° 0 mm 3 m/S 768 mmHg 47%
    01:00 -1°C° 0 mm 3 m/S 769 mmHg 41%
    02:00 -2°C° 0 mm 3 m/S 769 mmHg 35%
    03:00 -2°C° 0 mm 3 m/S 769 mmHg 37%
    04:00 -4°C° 0 mm 3 m/S 769 mmHg 39%
    05:00 -4°C° 0 mm 3 m/S 769 mmHg 41%
    06:00 -4°C° 0 mm 3 m/S 770 mmHg 40%
    07:00 -4°C° 0 mm 3 m/S 770 mmHg 38%
    08:00 -4°C° 0 mm 3 m/S 771 mmHg 37%
    09:00 0°C° 0 mm 3 m/S 771 mmHg 30%
    10:00 +2°C° 0 mm 3 m/S 771 mmHg 23%
    11:00 +4°C° 0 mm 3 m/S 771 mmHg 16%
    12:00 +5°C° 0 mm 3 m/S 771 mmHg 14%
    13:00 +7°C° 0 mm 3 m/S 771 mmHg 12%
    14:00 +8°C° 0 mm 3 m/S 770 mmHg 11%
    15:00 +8°C° 0 mm 3 m/S 770 mmHg 11%
    16:00 +8°C° 0 mm 2 m/S 770 mmHg 12%
    17:00 +8°C° 0 mm 2 m/S 770 mmHg 12%
    18:00 +6°C° 0 mm 2 m/S 771 mmHg 14%
    19:00 +6°C° 0 mm 1 m/S 771 mmHg 16%
    20:00 +5°C° 0 mm 1 m/S 772 mmHg 18%
    21:00 +4°C° 0 mm 1 m/S 772 mmHg 19%
    22:00 +4°C° 0 mm 1 m/S 772 mmHg 21%
    23:00 +3°C° 0 mm 1 m/S 773 mmHg 23%

    übermorgen, 21 Februar, Donnerstag

    Zeit Temperatur Niederschläge Wind Luftdruck Luftfeuchtigkeit
    00:00 +3°C° 0 mm 1 m/S 772 mmHg 25%
    01:00 +2°C° 0 mm 1 m/S 772 mmHg 27%
    02:00 +2°C° 0 mm 1 m/S 772 mmHg 29%
    03:00 +2°C° 0 mm 1 m/S 772 mmHg 30%
    04:00 +1°C° 0 mm 1 m/S 772 mmHg 31%
    05:00 +1°C° 0 mm 1 m/S 772 mmHg 32%
    06:00 +1°C° 0 mm 1 m/S 772 mmHg 31%
    07:00 +1°C° 0 mm 1 m/S 772 mmHg 31%
    08:00 +1°C° 0 mm 1 m/S 772 mmHg 31%
    09:00 +4°C° 0 mm 1 m/S 772 mmHg 28%
    10:00 +5°C° 0 mm 2 m/S 772 mmHg 24%
    11:00 +7°C° 0 mm 2 m/S 772 mmHg 21%
    12:00 +8°C° 0 mm 2 m/S 771 mmHg 20%
    13:00 +9°C° 0 mm 2 m/S 770 mmHg 18%
    14:00 +12°C° 0 mm 2 m/S 769 mmHg 17%
    15:00 +12°C° 0 mm 2 m/S 769 mmHg 17%
    16:00 +12°C° 0 mm 2 m/S 769 mmHg 18%
    17:00 +12°C° 0 mm 2 m/S 768 mmHg 18%
    18:00 +10°C° 0 mm 1 m/S 768 mmHg 20%
    19:00 +9°C° 0 mm 1 m/S 769 mmHg 22%
    20:00 +7°C° 0 mm 0 m/S 769 mmHg 24%
    21:00 +6°C° 0 mm 0 m/S 769 mmHg 25%
    22:00 +6°C° 0 mm 0 m/S 769 mmHg 26%
    23:00 +5°C° 0 mm 0 m/S 769 mmHg 27%

    22 Februar, Freitag

    Zeit Temperatur Niederschläge Wind Luftdruck Luftfeuchtigkeit
    00:00 +5°C° 0 mm 0 m/S 768 mmHg 28%
    01:00 +5°C° 0 mm 0 m/S 768 mmHg 28%
    02:00 +5°C° 0 mm 1 m/S 768 mmHg 29%
    03:00 +5°C° 0 mm 1 m/S 768 mmHg 29%
    04:00 +5°C° 0 mm 1 m/S 767 mmHg 29%
    05:00 +4°C° 0 mm 1 m/S 767 mmHg 29%
    06:00 +4°C° 0 mm 1 m/S 768 mmHg 28%
    07:00 +3°C° 0 mm 2 m/S 768 mmHg 28%
    08:00 +3°C° 0 mm 2 m/S 768 mmHg 28%
    09:00 +5°C° 0 mm 2 m/S 769 mmHg 25%
    10:00 +7°C° 0 mm 2 m/S 769 mmHg 23%
    11:00 +8°C° 0 mm 3 m/S 769 mmHg 20%
    12:00 +9°C° 0 mm 3 m/S 769 mmHg 19%
    13:00 +10°C° 0 mm 3 m/S 769 mmHg 17%
    14:00 +11°C° 0 mm 4 m/S 768 mmHg 16%
    15:00 +10°C° 0 mm 3 m/S 769 mmHg 16%
    16:00 +10°C° 0 mm 3 m/S 769 mmHg 17%
    17:00 +10°C° 0 mm 2 m/S 769 mmHg 17%
    18:00 +9°C° 0 mm 2 m/S 770 mmHg 19%
    19:00 +9°C° 0 mm 1 m/S 770 mmHg 21%
    20:00 +7°C° 0 mm 0 m/S 771 mmHg 23%
    21:00 +6°C° 0 mm 0 m/S 771 mmHg 24%
    22:00 +6°C° 0 mm 1 m/S 772 mmHg 26%
    23:00 +6°C° 0 mm 1 m/S 772 mmHg 28%

    23 Februar, Samstag

    Zeit Temperatur Niederschläge Wind Luftdruck Luftfeuchtigkeit
    00:00 +5°C° 0 mm 1 m/S 772 mmHg 29%
    01:00 +5°C° 0 mm 1 m/S 772 mmHg 31%
    02:00 +4°C° 0 mm 1 m/S 772 mmHg 33%
    03:00 +4°C° 0 mm 1 m/S 772 mmHg 34%
    04:00 +2°C° 0 mm 0 m/S 772 mmHg 35%
    05:00 +2°C° 0 mm 0 m/S 772 mmHg 37%
    06:00 +2°C° 0 mm 0 m/S 772 mmHg 36%
    07:00 +2°C° 0 mm 0 m/S 772 mmHg 35%
    08:00 +2°C° 0 mm 0 m/S 773 mmHg 35%
    09:00 +4°C° 0 mm 0 m/S 773 mmHg 30%
    10:00 +7°C° 0 mm 1 m/S 773 mmHg 25%
    11:00 +9°C° 0 mm 1 m/S 772 mmHg 21%
    12:00 +9°C° 0 mm 2 m/S 772 mmHg 19%
    13:00 +10°C° 0 mm 2 m/S 771 mmHg 17%
    14:00 +12°C° 0 mm 2 m/S 770 mmHg 15%
    15:00 +12°C° 0 mm 2 m/S 770 mmHg 15%
    16:00 +12°C° 0 mm 2 m/S 769 mmHg 15%
    17:00 +11°C° 0 mm 3 m/S 769 mmHg 15%
    18:00 +10°C° 0 mm 3 m/S 769 mmHg 17%
    19:00 +9°C° 0 mm 3 m/S 769 mmHg 19%
    20:00 +7°C° 0 mm 3 m/S 769 mmHg 21%
    21:00 +7°C° 0 mm 3 m/S 769 mmHg 22%
    22:00 +5°C° 0 mm 3 m/S 769 mmHg 24%
    23:00 +4°C° 0 mm 3 m/S 769 mmHg 25%

    24 Februar, Sonntag

    Zeit Temperatur Niederschläge Wind Luftdruck Luftfeuchtigkeit
    00:00 +4°C° 0 mm 3 m/S 769 mmHg 26%
    01:00 +3°C° 0 mm 3 m/S 769 mmHg 27%
    02:00 +3°C° 0 mm 3 m/S 768 mmHg 27%
    03:00 +4°C° 0 mm 2 m/S 768 mmHg 28%
    04:00 +3°C° 0 mm 2 m/S 768 mmHg 29%
    05:00 +3°C° 0 mm 2 m/S 767 mmHg 30%
    06:00 +3°C° 0 mm 2 m/S 767 mmHg 30%
    07:00 +4°C° 0 mm 1 m/S 767 mmHg 30%
    08:00 +4°C° 0 mm 1 m/S 768 mmHg 29%
    09:00 +6°C° 0 mm 1 m/S 768 mmHg 27%
    10:00 +8°C° 0 mm 1 m/S 767 mmHg 24%
    11:00 +8°C° 0 mm 2 m/S 767 mmHg 21%
    12:00 +9°C° 0 mm 2 m/S 767 mmHg 20%
    13:00 +11°C° 0 mm 1 m/S 766 mmHg 20%
    14:00 +11°C° 0 mm 1 m/S 766 mmHg 19%
    15:00 +11°C° 0 mm 1 m/S 766 mmHg 19%
    16:00 +11°C° 0 mm 1 m/S 766 mmHg 19%
    17:00 +10°C° 0 mm 0 m/S 766 mmHg 19%
    18:00 +9°C° 0 mm 0 m/S 766 mmHg 21%
    19:00 +9°C° 0 mm 1 m/S 767 mmHg 23%
    20:00 +8°C° 0 mm 1 m/S 767 mmHg 24%
    21:00 +7°C° 0 mm 1 m/S 767 mmHg 26%
    22:00 +7°C° 0 mm 1 m/S 768 mmHg 28%
    23:00 +5°C° 0 mm 2 m/S 768 mmHg 30%
    Mehr zeigen